Location: Waldfischbach-Burgalben
(49.2821°N, 7.6476°E)
Time: 05:16:00
(UTC+00:00)

Daily predictions for brighter satellites

Satellite Brightness Start Highest point End
(mag) Time Altitude Azimuth Time Altitude Azimuth Time Altitude Azimuth
Cosmos 2278 Rocket 4.1 03:14:43 25° NE 03:14:43 25° NE 03:19:12 10° E
Cosmos 2333 Rocket 3.5 03:32:03 36° E 03:32:03 36° E 03:36:52 10° NE
Lacrosse 5 rocket 4.4 03:36:14 12° ENE 03:36:14 12° ENE 03:36:34 10° ENE
Cosmos 2219 Rocket 3.6 03:33:23 34° ESE 03:33:32 34° ESE 03:38:31 10° NE
USA 215 3.7 03:42:24 10° ENE 03:48:02 50° N 03:48:02 50° N
GEOS 3 Rocket 4.3 03:45:44 10° ESE 03:50:25 52° ENE 03:50:25 52° ENE
COSMOS 2428 3.9 03:50:00 33° SE 03:51:38 40° ESE 03:56:54 10° NE
SL-16 R/B 4.0 04:00:40 21° N 04:00:40 21° N 04:02:44 10° NNE
Cosmos 2360 Rocket 3.2 04:05:03 36° N 04:05:03 36° N 04:08:23 10° NNE
Cosmos 2322 Rocket 3.8 04:06:15 23° N 04:06:15 23° N 04:08:35 10° NNE
Cosmos 44 Rocket 4.0 04:08:17 52° NE 04:08:17 52° NE 04:13:24 10° ESE
ALOS 4.3 04:07:42 10° NNE 04:09:03 19° NNE 04:09:03 19° NNE
FENGYUN 3A 4.1 04:07:16 10° NNE 04:11:19 52° NNE 04:11:19 52° NNE
ADEOS 3.9 04:09:59 10° NNE 04:15:11 63° ESE 04:17:44 30° S
ATLAS 5 CENTAUR R/B 4.2 04:19:14 15° SE 04:19:14 15° SE 04:20:00 10° SE
Cosmos 990 Rocket 4.2 04:19:24 64° SE 04:19:24 64° SE 04:23:45 10° SSE
Cosmos 1980 Rocket 4.4 04:21:02 12° N 04:21:02 12° N 04:21:50 10° N
MOS 1 Rocket 4.3 04:15:46 10° SE 04:20:31 46° ENE 04:23:48 18° N
ERS-2 3.9 04:21:26 10° SE 04:23:29 29° SE 04:23:29 29° SE
Cosmos 1726 4.4 04:35:56 17° NNE 04:35:56 17° NNE 04:36:56 10° NNE
SL-8 R/B 4.0 04:34:40 58° S 04:34:40 58° S 04:39:00 10° ESE
IRIDIUM 106 4.2 04:29:35 10° S 04:34:48 90° SE 04:40:04 10° N
Cosmos 2233 Rocket 4.2 04:36:26 49° NW 04:36:26 49° NW 04:41:36 10° N
Cosmos 1461 4.1 04:35:33 25° S 04:37:54 47° ESE 04:42:28 10° NE
SJ-12 4.1 04:34:07 10° NNE 04:38:16 70° ESE 04:39:02 55° SSE
Cosmos 1689 Rocket 4.4 04:38:30 10° SE 04:39:51 22° SE 04:39:51 22° SE
Cosmos 1763 Rocket 3.5 04:40:44 19° SSW 04:44:31 77° ESE 04:49:47 10° NNE
Cosmos 1898 Rocket 3.3 04:48:06 62° WNW 04:48:34 66° WSW 04:53:41 10° S
Cosmos 2084 3.4 04:49:49 70° N 04:49:49 70° N 04:53:55 10° NE
BREEZE-M DEB (TANK) 3.7 04:48:26 51° W 04:49:55 89° NNW 05:05:14 10° E
Cosmos 2369 Rocket 4.4 04:49:15 10° N 04:53:05 18° NE 04:56:55 10° E
Cosmos 1758 4.0 04:54:43 41° N 04:54:43 41° N 04:57:29 10° N
Cosmos 921 Rocket 2.8 04:53:25 43° SSW 04:54:46 89° ESE 04:59:01 10° NNE
NOSS 0 Rocket 4.4 04:49:29 10° SSW 04:55:35 63° ESE 05:01:41 10° NE
Meteor 1-21 Rocket 4.3 04:50:39 10° N 04:56:23 80° E 05:02:11 10° SSE
Cosmos 1340 3.7 04:56:03 15° N 04:58:58 44° ENE 05:02:34 10° SSE
CZ-4B R/B 4.1 04:54:34 10° N 04:58:57 59° WNW 04:58:57 59° WNW
Cosmos 2278 Rocket 2.1 04:56:36 33° NW 04:59:18 77° WSW 05:04:57 10° SSE
Cosmos 1513 Rocket 4.4 04:53:14 10° S 04:59:34 83° W 05:05:50 10° N
COSMO-SKYMED 1 2.8 04:55:52 10° S 04:59:33 51° SW 04:59:33 51° SW
METEOR-M 4.3 04:56:17 10° N 05:01:27 49° WNW 05:02:50 40° WSW
CZ-4B R/B 2.6 04:58:04 10° NNE 05:01:41 80° ESE 05:05:20 10° SSW
Cosmos 1703 4.0 04:58:08 11° N 05:01:44 51° ENE 05:05:32 10° SSE
Cosmos 1943 Rocket 3.8 05:01:39 10° NNW 05:06:36 30° NE 05:11:31 10° ESE
Cosmos 1891 Rocket 4.3 05:01:57 10° SSW 05:08:08 71° WNW 05:14:14 10° N
Cosmos 2322 4.1 05:09:02 38° W 05:10:14 43° NW 05:15:42 10° NNE
SAR-Lupe-4 3.4 05:07:27 10° S 05:11:00 70° WSW 05:11:24 62° WNW
Cosmos 1464 Rocket 3.8 05:05:39 10° SSW 05:11:45 72° W 05:17:56 10° N
Cosmos 2237 Rocket 2.6 05:06:30 10° SSW 05:12:05 64° ESE 05:17:44 10° NNE
Lacrosse 5 rocket 1.0 05:11:53 58° WNW 05:12:36 88° SW 05:16:21 10° SE
CZ-2C R/B 3.5 05:08:23 10° SE 05:13:23 48° ENE 05:18:30 10° N
H-2A R/B 2.6 05:11:18 10° NNE 05:15:02 86° ESE 05:18:44 10° SSW
Cosmos 2333 Rocket 2.5 05:14:07 34° W 05:15:55 44° NW 05:21:21 10° NNE
Lacrosse 4 Rocket 4.0 05:12:38 10° SSE 05:16:00 23° ESE 05:19:26 10° ENE
Cosmos 1867 4.5 05:15:21 28° NW 05:16:03 29° NNW 05:20:50 10° NNE
Cosmos 1072 Rocket 4.4 05:10:28 10° SSW 05:16:36 62° WNW 05:22:54 10° N
Cosmos 2219 Rocket 2.4 05:15:11 31° WSW 05:17:21 46° NW 05:22:46 10° NNE
Cosmos 1544 Rocket 3.4 05:13:37 10° SSW 05:17:57 79° WNW 05:22:18 10° N
Cosmos 468 Rocket 4.0 05:14:26 17° SW 05:18:20 56° WNW 05:23:34 10° NNE
SAR-Lupe-1 4.1 05:18:20 10° S 05:21:50 53° W 05:22:28 46° WNW
Cosmos 1937 Rocket 3.7 05:20:43 27° NW 05:23:13 47° WSW 05:28:13 10° S
DMSP B5D1-3 4.4 05:19:21 10° SSE 05:24:27 83° WSW 05:29:36 10° NNW
BREEZE-M DEB (TANK) 3.8 05:20:11 24° WNW 05:25:06 48° SW 05:28:41 10° SE
Cosmos 372 Rocket 3.9 05:20:52 14° NNW 05:25:26 81° WSW 05:30:40 10° SSE
Okean 1-7 Rocket 3.9 05:23:31 26° NW 05:25:34 42° W 05:29:48 10° SSW
Cosmos 1814 Rocket 4.3 05:22:42 10° S 05:27:47 68° ESE 05:32:54 10° NNE
Cosmos 2084 Rocket 4.3 05:25:15 20° NNW 05:27:58 48° NE 05:32:17 10° ESE
Envisat 3.1 05:23:23 10° NNE 05:28:30 79° ESE 05:33:35 10° S
GEOS 3 Rocket 4.2 05:24:07 10° S 05:29:06 39° WSW 05:31:32 26° WNW
Cosmos 1328 3.9 05:25:11 10° N 05:29:08 75° E 05:33:02 10° SSE
Cosmos 2297 4.3 05:25:12 10° NNW 05:30:54 58° ENE 05:36:34 10° SE
USA 215 3.8 05:24:55 10° ENE 05:31:05 47° N 05:35:23 20° WNW
Cosmos 1400 Rocket 3.1 05:27:17 10° S 05:31:21 72° E 05:35:29 10° NNE
FALCON 9 DEB 4.1 05:31:29 16° SW 05:33:58 46° SSE 05:37:14 10° ENE
Cosmos 1626 Rocket 3.6 05:29:57 10° NNW 05:34:24 62° W 05:38:48 10° S
COSMOS 2428 3.1 05:32:07 18° WSW 05:35:54 42° NW 05:41:19 10° NNE
PSLV R/B 3.8 05:33:10 10° NNE 05:37:08 85° ESE 05:41:09 10° SSW
Cosmos 1092 Rocket 3.9 05:31:13 10° N 05:37:24 86° W 05:43:34 10° S
YAOGAN 6 2.5 05:34:29 10° N 05:38:11 77° WNW 05:41:52 10° SSW
SL-16 R/B 4.1 05:42:32 12° NW 05:43:20 12° NNW 05:45:31 10° N
Cosmos 1980 3.6 05:39:17 10° SW 05:44:55 73° WNW 05:50:37 10° NNE
Cosmos 1455 Rocket 3.8 05:41:10 10° SW 05:45:00 30° WNW 05:48:51 10° N
Cosmos 1300 3.9 05:44:06 10° SSE 05:47:45 46° E 05:51:25 10° NNE
Cosmos 2360 Rocket 3.7 05:46:50 16° NW 05:47:54 17° NW 05:51:35 10° N
Cosmos 2322 Rocket 4.0 05:48:04 12° NW 05:48:59 12° NNW 05:51:20 10° N
ALOS 4.2 05:46:37 10° NNW 05:47:33 13° NW 05:47:33 13° NW
Cosmos 2034 Rocket 4.1 05:43:02 10° SSW 05:49:15 55° WNW 05:55:32 10° N
Cosmos 44 Rocket 4.2 05:47:02 21° WNW 05:49:41 33° WSW 05:54:17 10° S
SJ-7 4.5 05:45:56 10° N 05:50:04 58° WNW 05:54:06 10° SSW
H-2A R/B 3.0 05:47:03 10° NNE 05:51:32 70° ESE 05:56:01 10° S
Nadezhda 4 Rocket 4.3 05:48:31 10° NNW 05:54:13 42° W 05:59:53 10° SSW
ATLAS CENTAUR R/B 2.7 05:52:21 10° S 05:55:46 37° ESE 05:59:11 10° NE
Cosmos 1758 Rocket 3.6 05:52:02 10° N 05:56:34 86° W 06:01:02 10° S
NOSS 3-2 (A) 4.4 05:51:20 10° SSW 05:56:46 50° ESE 06:02:59 10° NE
deb Chang Zheng 4 4.4 05:53:11 10° N 05:56:46 27° WNW 06:00:20 10° WSW
CZ-4B DEB 4.2 05:52:08 10° NNE 05:57:44 84° WNW 06:03:17 10° SSW
ERS-2 3.9 05:56:29 10° SW 05:58:03 15° WSW 05:58:03 15° WSW
MOS 1 Rocket 4.4 05:54:49 10° SSW 05:58:55 25° W 06:02:53 10° NW
Cosmos 540 Rocket 3.6 05:54:07 10° SW 05:59:05 50° WNW 06:04:06 10° NNE
Cosmos 1953 3.0 05:55:59 10° SW 05:59:31 30° WNW 06:03:05 10° N
BREEZE-M DEB (TANK) 4.0 05:57:07 10° SW 06:00:29 56° SE 06:11:49 10° ENE
Okean O Rocket 2.2 05:57:09 10° NNE 06:01:30 61° ESE 06:05:48 10° S
Cosmos 1634 Rocket 4.0 05:59:13 10° S 06:05:23 84° W 06:11:37 10° N
Cosmos 1908 3.7 06:01:52 10° SW 06:05:24 36° WNW 06:08:59 10° N
Cosmos 1726 4.3 06:10:29 10° NW 06:10:29 10° NW 06:10:33 10° NW
SMAP 3.0 06:07:05 10° NNE 06:11:47 81° WNW 06:16:26 10° SSW
Cosmos 1689 Rocket 4.3 06:11:16 10° WSW 06:11:43 11° WSW 06:11:43 11° WSW
Spot 2 3.9 06:09:27 10° N 06:13:27 59° WNW 06:17:25 10° SSW
AQUARIUS 4.1 06:08:56 10° NNE 06:13:28 86° WNW 06:17:57 10° SSW
Cosmos 1602 Rocket 4.3 06:10:32 10° NNW 06:14:31 33° W 06:18:32 10° SSW
Cosmos 1892 3.9 06:12:59 10° N 06:16:41 45° ENE 06:20:23 10° SSE
Cosmos 1461 3.9 06:12:48 10° WSW 06:17:10 35° NW 06:21:33 10° NNE
Cosmos 2150 Rocket 4.2 06:12:35 10° NNW 06:17:49 58° WSW 06:23:05 10° S
Cosmos 1726 Rocket 4.0 06:13:40 10° S 06:17:56 64° E 06:22:13 10° NNE
Cosmos 1315 Rocket 2.9 06:15:36 10° S 06:19:31 82° E 06:23:27 10° NNE
USA 305 4.5 06:17:25 10° SSW 06:21:21 38° SE 06:25:17 10° ENE
DMSP B5D2-2 4.1 06:19:07 10° S 06:24:19 64° WSW 06:29:35 10° NNW
H-2A R/B 4.5 06:20:22 10° NE 06:24:57 28° E 06:29:34 10° SSE
Cosmos 1655 Rocket 4.3 06:22:01 10° N 06:28:17 74° ENE 06:34:34 10° SSE
Cosmos 2026 Rocket 4.3 06:25:18 10° NNW 06:31:19 47° W 06:37:20 10° SSW
Cosmos 1825 Rocket 3.8 06:27:49 10° NNW 06:32:10 51° W 06:36:29 10° S
Cosmos 841 Rocket 4.2 06:28:06 10° WSW 06:32:38 31° NW 06:37:14 10° N
USA 306 4.2 06:29:05 10° SW 06:33:07 45° SE 06:37:11 10° ENE
Cosmos 1340 4.3 06:31:51 10° NW 06:34:11 16° W 06:36:31 10° SW
CENTAUR R/B 3.3 06:29:21 10° SSW 06:35:09 59° ESE 06:42:05 10° NE
Cosmos 2369 Rocket 2.5 06:32:33 10° NNW 06:38:11 71° ENE 06:43:45 10° SE
Cosmos 2098 Rocket 4.1 06:33:57 10° NNW 06:40:05 46° W 06:45:05 10° SSW
CZ-4B R/B 3.3 06:36:13 10° N 06:41:51 65° WNW 06:47:23 10° SSW
